EW9686 Weather Reports


Display with metric or nautical units.
time (UTC)temp
F
wind
direction
speed
MPH
gust
MPH
rain 1hr
in
rain 24hr
in
rain mn
in
humidity
%
barometer
mb
20260508075019 49 270 3.0 7.0 0.00 0.00 0.00 76 1006.9
20260508074019 49 293 4.0 9.0 0.00 0.00 0.00 77 1006.7
20260508073039 49 270 2.0 6.0 0.00 0.00 0.00 79 1006.2
20260508072019 49 293 3.0 9.0 0.00 0.00 0.00 81 1005.9
20260508071019 50 23 2.0 9.0 0.00 0.00 0.00 83 1005.5
20260508070019 50 23 1.0 7.0 0.00 0.00 0.00 86 1005.5
20260508065039 51 293 1.0 5.0 0.00 0.00 0.00 87 1005.6
20260508064019 51 293 2.0 7.0 0.00 0.00 0.00 88 1005.6
20260508063019 51 45 3.0 8.0 0.00 0.00 0.00 90 1005.4
20260508062019 51 293 2.0 5.0 0.00 0.00 0.00 89 1005.3
20260508061019 50 270 2.0 5.0 0.00 0.00 0.00 90 1005.2
20260508060019 50 293 1.0 4.0 0.00 0.00 0.00 92 1005.0
20260508055019 49 0.0 0.0 0.00 0.00 0.00 92 1005.0
20260508054040 49 0.0 1.0 0.00 0.00 0.00 92 1005.0
20260508053019 49 0.0 2.0 0.00 0.00 0.00 93 1005.0
20260508052019 49 0.0 0.0 0.00 0.00 0.00 94 1005.0
20260508051019 49 0.0 1.0 0.00 0.00 0.00 95 1005.1
20260508050039 48 0.0 1.0 0.00 0.00 0.00 96 1005.3
20260508045039 47 0.0 0.0 0.00 0.00 0.00 96 1005.1
20260508044019 46 0.0 0.0 0.00 0.00 0.00 95 1005.0
20260508043019 46 0.0 0.0 0.00 0.00 0.00 95 1004.9
20260508042019 46 0.0 0.0 0.00 0.00 0.00 95 1004.9
20260508041019 46 0.0 0.0 0.00 0.00 0.00 94 1004.9
20260508040019 46 0.0 0.0 0.00 0.00 0.00 93 1004.9
20260508035040 47 0.0 0.0 0.00 0.00 0.00 93 1004.9
20260508034039 47 0.0 1.0 0.00 0.00 0.00 93 1004.8
20260508033019 47 0.0 0.0 0.00 0.00 0.00 92 1004.7
20260508032019 47 0.0 0.0 0.00 0.00 0.00 91 1004.9
20260508031019 48 0.0 0.0 0.00 0.00 0.00 90 1004.8
20260508030019 48 0.0 1.0 0.00 0.00 0.00 89 1004.9
20260508025039 48 0.0 0.0 0.00 0.00 0.00 88 1004.9
20260508024019 49 0.0 0.0 0.00 0.00 0.00 87 1005.0
20260508023019 49 0.0 1.0 0.00 0.00 0.00 86 1005.1
20260508022019 50 0.0 0.0 0.00 0.00 0.00 85 1005.2
20260508021019 50 0.0 1.0 0.00 0.00 0.00 84 1005.1
20260508020019 50 0.0 1.0 0.00 0.00 0.00 82 1005.1
20260508015019 51 0.0 1.0 0.00 0.00 0.00 81 1005.0
20260508014039 52 0.0 1.0 0.00 0.00 0.00 79 1004.9
20260508013019 52 0.0 2.0 0.00 0.00 0.00 78 1004.8
20260508012020 53 0.0 2.0 0.00 0.00 0.00 76 1004.9
20260508011040 53 0.0 2.0 0.00 0.00 0.00 74 1004.8
20260508010019 54 0.0 2.0 0.00 0.00 0.00 73 1004.7
20260508005019 55 0.0 1.0 0.00 0.00 0.00 72 1004.6
20260508004019 55 0.0 2.0 0.00 0.00 0.00 71 1004.5
20260508003019 55 0.0 1.0 0.00 0.00 0.00 70 1004.3
20260508002019 56 0.0 3.0 0.00 0.00 0.00 69 1004.2
20260508001019 56 0.0 3.0 0.00 0.00 0.00 67 1004.0
20260508000019 57 0.0 3.0 0.00 0.00 0.00 65 1003.9
20260507235020 58 0.0 2.0 0.00 0.00 0.00 63 1003.9
20260507234043 59 203 1.0 3.0 0.00 0.00 0.00 58 1003.7
20260507233019 61 0.0 2.0 0.00 0.00 0.00 46 1003.5
20260507232020 62 0.0 1.0 0.00 0.00 0.00 39 1003.3
20260507231100 63 0.0 1.0 0.00 0.00 0.00 37 1003.3
20260507230020 65 0.0 2.0 0.00 0.00 0.00 37 1003.3
20260507225020 65 270 1.0 5.0 0.00 0.00 0.00 36 1003.2
20260507224019 65 270 1.0 4.0 0.00 0.00 0.00 35 1003.3
20260507223019 65 0.0 2.0 0.00 0.00 0.00 36 1003.4
20260507222019 66 23 1.0 3.0 0.00 0.00 0.00 34 1003.3
20260507221019 66 0.0 2.0 0.00 0.00 0.00 32 1003.4
20260507220039 65 248 4.0 7.0 0.00 0.00 0.00 34 1003.4
20260507215019 66 225 1.0 2.0 0.00 0.00 0.00 35 1003.5
20260507214039 65 293 3.0 10.0 0.00 0.00 0.00 35 1003.5
20260507213039 65 293 3.0 9.0 0.00 0.00 0.00 36 1003.4
20260507212019 64 23 2.0 7.0 0.00 0.00 0.00 35 1003.2
20260507211019 66 23 2.0 7.0 0.00 0.00 0.00 33 1003.2
20260507210019 65 225 2.0 5.0 0.00 0.00 0.00 36 1003.2
20260507205019 65 293 3.0 8.0 0.00 0.00 0.00 37 1003.1
20260507204039 66 225 3.0 6.0 0.00 0.00 0.00 34 1003.1
20260507203019 65 248 3.0 6.0 0.00 0.00 0.00 37 1003.1
20260507202019 65 90 2.0 7.0 0.00 0.00 0.00 36 1003.2
20260507201019 65 270 2.0 8.0 0.00 0.00 0.00 41 1003.4
20260507200019 64 270 2.0 6.0 0.00 0.00 0.00 37 1003.4
20260507195039 64 293 4.0 9.0 0.00 0.00 0.00 36 1003.5
20260507194019 65 270 1.0 5.0 0.00 0.00 0.00 35 1003.6
20260507193019 64 23 3.0 8.0 0.00 0.00 0.00 37 1003.8
20260507192019 63 270 4.0 8.0 0.00 0.00 0.00 37 1003.9
20260507191019 63 293 5.0 10.0 0.00 0.00 0.00 38 1003.9
20260507190019 63 270 4.0 11.0 0.00 0.00 0.00 36 1003.9
20260507185039 63 248 3.0 7.0 0.00 0.00 0.00 38 1004.2
20260507184019 63 293 4.0 13.0 0.00 0.00 0.00 36 1004.4
20260507183020 63 270 4.0 9.0 0.00 0.00 0.00 37 1004.5
20260507182019 63 270 4.0 7.0 0.00 0.00 0.00 38 1004.4
20260507181019 62 270 4.0 10.0 0.00 0.00 0.00 38 1004.5
20260507180019 62 293 5.0 11.0 0.00 0.00 0.00 38 1004.6
20260507175023 62 270 5.0 12.0 0.00 0.00 0.00 39 1004.6
20260507174019 62 293 5.0 11.0 0.00 0.00 0.00 39 1005.1
20260507173019 61 45 3.0 7.0 0.00 0.00 0.00 44 1005.1
20260507172019 61 293 5.0 9.0 0.00 0.00 0.00 40 1005.2
20260507171040 61 270 4.0 12.0 0.00 0.00 0.00 45 1005.4
20260507170019 61 45 3.0 7.0 0.00 0.00 0.00 45 1005.4
20260507165019 60 270 5.0 10.0 0.00 0.00 0.00 44 1005.3
20260507164019 60 23 3.0 8.0 0.00 0.00 0.00 49 1005.5
20260507163019 60 270 4.0 12.0 0.00 0.00 0.00 44 1005.8
20260507162019 59 293 3.0 7.0 0.00 0.00 0.00 51 1005.9
20260507161019 59 23 4.0 9.0 0.00 0.00 0.00 50 1006.0
20260507160019 59 270 5.0 9.0 0.00 0.00 0.00 51 1006.2
20260507155019 58 270 4.0 13.0 0.00 0.00 0.00 53 1006.3
20260507154020 58 270 6.0 11.0 0.00 0.00 0.00 52 1006.7
20260507153019 58 270 4.0 9.0 0.00 0.00 0.00 55 1006.7
20260507152019 58 293 5.0 12.0 0.00 0.00 0.00 54 1007.0
20260507151019 58 270 4.0 11.0 0.00 0.00 0.00 57 1006.9
20260507150022 57 270 5.0 10.0 0.00 0.00 0.00 59 1007.0
20260507145019 57 23 4.0 12.0 0.00 0.00 0.00 61 1007.0
20260507144019 56 270 4.0 11.0 0.00 0.00 0.00 64 1007.2
20260507143020 56 270 4.0 9.0 0.00 0.00 0.00 66 1007.2
20260507142039 55 45 3.0 8.0 0.00 0.00 0.00 67 1007.2
20260507141019 55 293 4.0 10.0 0.00 0.00 0.00 67 1007.2
20260507140019 55 293 3.0 8.0 0.00 0.00 0.00 72 1007.2
20260507135019 54 23 2.0 6.0 0.00 0.00 0.00 75 1007.2
20260507134019 54 45 4.0 9.0 0.00 0.00 0.00 75 1007.1
20260507133019 53 293 4.0 10.0 0.00 0.00 0.00 79 1007.1
20260507132019 52 270 5.0 12.0 0.00 0.00 0.00 81 1007.2
20260507131019 52 0.0 2.0 0.00 0.00 0.00 86 1007.2
20260507130019 51 270 4.0 10.0 0.00 0.00 0.00 86 1007.0
20260507125019 51 270 2.0 8.0 0.00 0.00 0.00 88 1007.1
20260507124019 51 270 3.0 8.0 0.00 0.00 0.00 90 1007.3
20260507123019 51 293 2.0 8.0 0.00 0.00 0.00 90 1007.2
20260507122019 51 293 3.0 10.0 0.00 0.00 0.00 91 1007.1
20260507121019 51 293 2.0 5.0 0.00 0.00 0.00 92 1007.1
20260507120059 50 270 1.0 5.0 0.00 0.00 0.00 93 1007.1
20260507115019 50 270 2.0 6.0 0.00 0.00 0.00 93 1007.0
20260507114039 50 270 2.0 8.0 0.00 0.00 0.00 94 1006.9
20260507113039 50 270 1.0 5.0 0.00 0.00 0.00 94 1006.9
20260507112040 50 270 1.0 5.0 0.00 0.00 0.00 95 1006.6
20260507111519 50 270 1.0 2.0 0.00 0.00 0.00 95 1006.6
20260507110519 50 270 1.0 5.0 0.00 0.00 0.00 95 1006.3
20260507105519 50 270 1.0 5.0 0.00 0.00 0.00 96 1006.3
20260507104519 49 270 1.0 4.0 0.00 0.00 0.00 95 1006.0
20260507103519 49 0.0 3.0 0.00 0.00 0.00 96 1006.0
20260507102519 49 293 1.0 4.0 0.00 0.00 0.00 96 1005.8
20260507101519 49 270 1.0 2.0 0.00 0.00 0.00 95 1005.9
20260507100519 49 270 1.0 5.0 0.00 0.00 0.00 95 1005.8
20260507095519 49 270 1.0 4.0 0.00 0.00 0.00 95 1005.7
20260507094519 49 293 1.0 5.0 0.00 0.00 0.00 95 1005.6
20260507093519 49 0.0 2.0 0.00 0.00 0.00 95 1005.6
20260507092519 49 293 1.0 5.0 0.00 0.00 0.00 95 1005.4
20260507091519 49 293 2.0 5.0 0.00 0.00 0.00 95 1005.4
20260507090521 49 293 2.0 7.0 0.00 0.00 0.00 95 1005.3
20260507085520 49 293 2.0 6.0 0.00 0.00 0.00 94 1005.1
20260507084519 49 293 2.0 6.0 0.00 0.00 0.00 94 1005.1
20260507083519 50 270 2.0 7.0 0.00 0.00 0.00 94 1005.0
20260507082559 50 293 4.0 9.0 0.00 0.00 0.00 94 1005.1
20260507081521 50 270 4.0 7.0 0.00 0.00 0.00 95 1005.3
20260507080519 50 293 2.0 7.0 0.00 0.00 0.00 95 1005.5
20260507075519 50 270 2.0 6.0 0.00 0.00 0.00 95 1005.7